GW3616 Weather Reports


time (UTC)temp
F
wind
direction
speed
knots
gust
knots
rain 1hr
in
rain 24hr
in
rain mn
in
humidity
%
barometer
mb
20260906123852 61 73 0.0 0.9 0.00 0.00 0.00 99 1023.2
20260906123346 61 71 0.0 0.0 0.00 0.00 0.00 99 1023.1
20260906122841 61 71 0.0 0.0 0.00 0.00 0.00 99 1023.0
20260906122336 60 71 0.0 0.0 0.00 0.00 0.00 99 1023.2
20260906121833 60 71 0.0 0.0 0.00 0.00 0.00 99 1022.9
20260906121328 59 70 0.0 0.0 0.00 0.00 0.00 99 1022.7
20260906120824 60 71 0.0 0.0 0.00 0.00 0.00 99 1022.7
20260906120320 59 71 0.0 0.0 0.00 0.00 0.00 99 1022.7
20260906115816 58 71 0.0 0.0 0.00 0.00 0.00 99 1022.7
20260906115311 57 71 0.0 0.0 0.00 0.00 0.00 99 1022.6
20260906114810 57 71 0.0 0.0 0.00 0.00 0.00 99 1022.4
20260906114306 57 71 0.0 0.0 0.00 0.00 0.00 99 1022.5
20260906113800 57 71 0.0 0.0 0.00 0.00 0.00 99 1022.8
20260906113300 57 71 0.0 0.0 0.00 0.00 0.00 99 1022.5
20260906112755 57 71 0.0 0.0 0.00 0.00 0.00 99 1022.3
20260906112251 56 71 0.0 0.0 0.00 0.00 0.00 99 1022.1
20260906111750 56 71 0.0 0.0 0.00 0.00 0.00 99 1022.0
20260906111244 56 71 0.0 0.0 0.00 0.00 0.00 99 1022.4
20260906110739 57 71 0.0 0.0 0.00 0.00 0.00 99 1022.0
20260906110236 57 71 0.0 0.0 0.00 0.00 0.00 99 1022.1
20260906105734 56 71 0.0 0.0 0.00 0.00 0.00 99 1022.2
20260906105230 57 71 0.0 0.0 0.00 0.00 0.00 99 1022.3
20260906104725 57 71 0.0 0.0 0.00 0.00 0.00 99 1022.3
20260906104224 57 71 0.0 0.0 0.00 0.00 0.00 99 1022.3
20260906103722 57 71 0.0 0.0 0.00 0.00 0.00 99 1022.1
20260906103217 57 69 0.0 0.0 0.00 0.00 0.00 99 1022.1
20260906102712 57 70 0.0 0.0 0.00 0.00 0.00 99 1022.3
20260906102211 57 68 0.0 0.0 0.00 0.00 0.00 99 1022.2
20260906101706 57 68 0.0 0.0 0.00 0.00 0.00 99 1022.2
20260906101201 57 68 0.0 0.0 0.00 0.00 0.00 99 1022.1
20260906100656 57 68 0.0 0.0 0.00 0.00 0.00 99 1022.1
20260906100151 57 62 0.0 0.0 0.00 0.00 0.00 99 1022.1
20260906095646 57 62 0.0 0.0 0.00 0.00 0.00 99 1022.0
20260906095141 57 62 0.0 0.0 0.00 0.00 0.00 99 1022.0
20260906094640 58 61 0.0 0.0 0.00 0.00 0.00 99 1021.9
20260906094136 58 61 0.0 0.0 0.00 0.00 0.00 99 1021.9
20260906093632 58 61 0.0 0.9 0.00 0.00 0.00 99 1021.9
20260906093132 58 61 0.0 0.9 0.00 0.00 0.00 99 1021.8
20260906092627 58 58 0.9 0.9 0.00 0.00 0.00 99 1021.7
20260906092121 58 63 0.9 0.9 0.00 0.00 0.00 99 1022.0
20260906091618 58 63 0.0 0.9 0.00 0.00 0.00 99 1022.0
20260906091114 58 63 0.0 0.0 0.00 0.00 0.00 99 1021.9
20260906090609 58 64 0.0 0.0 0.00 0.00 0.00 99 1021.9
20260906090109 58 64 0.0 0.0 0.00 0.00 0.00 99 1022.2
20260906085608 58 64 0.0 0.0 0.00 0.00 0.00 99 1021.9
20260906085102 58 64 0.0 0.0 0.00 0.00 0.00 99 1021.6
20260906084557 58 64 0.0 0.0 0.00 0.00 0.00 99 1021.9
20260906084056 58 64 0.0 0.0 0.00 0.00 0.00 99 1021.6
20260906083552 58 63 0.0 0.0 0.00 0.00 0.00 99 1021.4
20260906083051 59 64 0.0 0.0 0.00 0.00 0.00 99 1021.5
20260906082547 59 64 0.0 0.0 0.00 0.00 0.00 99 1021.4
20260906082042 59 64 0.0 0.0 0.00 0.00 0.00 99 1021.5
20260906081538 59 64 0.0 0.0 0.00 0.00 0.00 99 1021.3
20260906081033 59 64 0.0 0.0 0.00 0.00 0.00 99 1021.2
20260906080530 59 64 0.0 0.0 0.00 0.00 0.00 99 1021.1
20260906080025 59 64 0.0 0.0 0.00 0.00 0.00 99 1021.2
20260906075519 59 64 0.0 0.0 0.00 0.00 0.00 99 1021.0
20260906075014 59 64 0.0 0.0 0.00 0.00 0.00 99 1021.0
20260906074509 59 64 0.0 0.0 0.00 0.00 0.00 99 1021.1
20260906074007 59 64 0.0 0.0 0.00 0.00 0.00 99 1021.3
20260906073502 59 64 0.0 0.0 0.00 0.00 0.00 99 1021.2
20260906072958 60 64 0.0 0.9 0.00 0.00 0.00 99 1021.1
20260906072453 60 64 0.0 0.0 0.00 0.00 0.00 99 1021.1
20260906071949 60 64 0.0 0.0 0.00 0.00 0.00 99 1021.1
20260906071446 60 64 0.0 0.0 0.00 0.00 0.00 98 1021.2
20260906070941 60 64 0.0 0.0 0.00 0.00 0.00 98 1021.1
20260906070437 60 64 0.0 0.0 0.00 0.00 0.00 98 1021.0
20260906065932 60 64 0.0 0.0 0.00 0.00 0.00 97 1020.9
20260906065427 60 64 0.0 0.9 0.00 0.00 0.00 97 1021.0
20260906064922 60 64 0.9 0.9 0.00 0.00 0.00 97 1021.2
20260906064419 61 64 0.0 0.0 0.00 0.00 0.00 96 1021.2
20260906063918 61 64 0.0 0.0 0.00 0.00 0.00 96 1021.2
20260906063414 61 64 0.0 0.0 0.00 0.00 0.00 95 1021.1
20260906062909 61 64 0.0 0.0 0.00 0.00 0.00 95 1021.1
20260906062409 61 64 0.0 0.0 0.00 0.00 0.00 95 1021.2
20260906061904 61 63 0.0 0.9 0.00 0.00 0.00 95 1021.2
20260906061400 61 64 0.0 0.0 0.00 0.00 0.00 94 1020.9
20260906060854 61 63 0.9 0.9 0.00 0.00 0.00 94 1021.1
20260906060352 61 63 0.0 0.9 0.00 0.00 0.00 95 1021.1
20260906055848 62 59 0.0 0.9 0.00 0.00 0.00 95 1021.1
20260906055343 62 63 0.0 0.9 0.00 0.00 0.00 94 1021.2
20260906054838 62 63 0.0 0.9 0.00 0.00 0.00 93 1020.9
20260906054333 62 65 0.0 0.0 0.00 0.00 0.00 93 1021.1
20260906053830 62 65 0.0 0.9 0.00 0.00 0.00 92 1020.7
20260906053325 63 66 0.0 0.0 0.00 0.00 0.00 91 1020.8
20260906052820 63 65 0.0 0.9 0.00 0.00 0.00 91 1020.8
20260906052317 63 66 0.0 0.9 0.00 0.00 0.00 91 1020.9
20260906051814 63 66 0.0 0.0 0.00 0.00 0.00 90 1020.9
20260906051313 64 64 0.0 0.0 0.00 0.00 0.00 91 1020.9
20260906050808 64 68 0.0 0.9 0.00 0.00 0.00 91 1020.8
20260906050304 64 64 0.0 0.0 0.00 0.00 0.00 91 1020.9
20260906045802 64 64 0.0 0.9 0.00 0.00 0.00 91 1020.7
20260906045257 64 59 0.9 2.6 0.00 0.00 0.00 91 1020.9
20260906044754 64 64 0.0 0.9 0.00 0.00 0.00 92 1020.8
20260906044248 64 66 0.0 0.9 0.00 0.00 0.00 92 1020.8
20260906043744 64 70 0.0 0.0 0.00 0.00 0.00 93 1020.7
20260906043240 64 54 0.9 0.9 0.00 0.00 0.00 94 1020.8
20260906042739 64 66 0.0 0.9 0.00 0.00 0.00 95 1020.5
20260906042238 64 64 0.0 0.9 0.00 0.00 0.00 96 1020.5
20260906041734 64 64 0.0 0.0 0.00 0.00 0.00 96 1020.4
20260906041229 65 64 0.0 0.0 0.00 0.00 0.00 96 1020.3
20260906040725 65 64 0.0 0.0 0.00 0.00 0.00 96 1020.2
20260906040220 65 64 0.0 0.9 0.00 0.00 0.00 96 1020.2
20260906035715 65 66 0.0 0.9 0.00 0.13 0.13 97 1020.2
20260906035210 65 69 0.0 0.0 0.00 0.13 0.13 98 1020.2
20260906034705 65 69 0.0 0.0 0.00 0.13 0.13 99 1020.2
20260906034205 65 67 0.0 0.9 0.00 0.13 0.13 99 1019.9
20260906033701 65 66 0.0 0.9 0.00 0.13 0.13 99 1019.9
20260906033200 65 63 0.0 0.9 0.00 0.13 0.13 99 1020.0
20260906032657 65 66 0.0 0.9 0.00 0.13 0.13 99 1019.8
20260906032152 65 62 0.0 0.0 0.00 0.13 0.13 99 1019.9
20260906031648 66 61 0.0 0.9 0.00 0.13 0.13 99 1020.2
20260906031143 66 61 0.0 0.0 0.00 0.13 0.13 99 1020.0
20260906030642 66 61 0.0 0.9 0.00 0.13 0.13 99 1019.8
20260906030138 67 62 0.0 0.9 0.00 0.13 0.13 99 1019.7
20260906025636 67 62 0.0 0.0 0.00 0.13 0.13 99 1019.8
20260906025136 67 62 0.0 0.0 0.00 0.13 0.13 99 1019.7
20260906024630 67 62 0.0 0.0 0.00 0.13 0.13 99 1019.9
20260906024125 67 62 0.0 0.0 0.00 0.13 0.13 99 1019.7
20260906023621 67 62 0.0 0.0 0.00 0.13 0.13 99 1019.9
20260906023121 67 62 0.0 0.0 0.00 0.13 0.13 99 1019.8
20260906022616 67 62 0.0 0.9 0.00 0.13 0.13 99 1019.6
20260906022112 68 62 0.0 0.9 0.00 0.13 0.13 99 1019.5
20260906021607 68 61 0.9 0.9 0.00 0.13 0.13 99 1019.4
20260906021106 68 62 0.0 0.0 0.00 0.13 0.13 99 1019.5
20260906020606 69 62 0.0 0.0 0.00 0.13 0.13 99 1019.5
20260906020100 69 62 0.9 0.9 0.00 0.13 0.13 99 1019.2
20260906015559 69 62 0.0 0.9 0.00 0.13 0.13 99 1019.4
20260906015053 69 70 0.0 0.9 0.00 0.13 0.13 99 1019.1
20260906014549 69 70 0.0 0.0 0.00 0.13 0.13 99 1019.3
20260906014045 70 70 0.0 0.0 0.00 0.13 0.13 99 1019.6
20260906013539 70 70 0.0 0.0 0.00 0.13 0.13 99 1019.3
20260906013035 70 70 0.0 0.0 0.00 0.13 0.13 99 1019.2
20260906012530 71 70 0.0 0.0 0.00 0.13 0.13 99 1019.0
20260906012029 71 70 0.0 0.0 0.00 0.13 0.13 99 1019.0
20260906011526 71 71 0.0 0.0 0.00 0.13 0.13 99 1019.0
20260906011025 71 82 0.9 0.9 0.00 0.13 0.13 99 1018.7
20260906010520 71 76 0.0 0.0 0.00 0.13 0.13 98 1019.0
20260906010017 72 80 0.0 0.0 0.00 0.13 0.13 98 1018.9
20260906005515 72 68 0.0 0.0 0.00 0.13 0.13 98 1018.5
20260906005014 72 68 0.0 0.0 0.00 0.13 0.13 98 1018.7
20260906004509 72 68 0.0 0.9 0.00 0.13 0.13 98 1018.5
20260906004004 72 85 0.9 0.9 0.00 0.13 0.13 97 1018.5
20260906003459 72 57 0.0 0.9 0.00 0.13 0.13 96 1018.5
20260906002954 73 46 0.9 0.9 0.00 0.13 0.13 96 1018.8
20260906002449 73 64 0.0 0.0 0.00 0.13 0.13 95 1018.3
20260906001944 73 64 0.0 0.9 0.00 0.13 0.13 94 1018.2
20260906001439 73 64 0.0 0.9 0.00 0.13 0.13 94 1018.5
20260906000929 74 55 0.9 0.9 0.00 0.13 0.13 93 1018.4
20260906000425 74 59 0.0 0.9 0.00 0.13 0.13 92 1018.4
20260905235918 75 32 1.7 2.6 0.00 0.13 0.13 91 1018.7
20260905235413 76 60 0.0 0.9 0.00 0.13 0.13 90 1018.7
20260905234908 76 60 0.0 0.0 0.00 0.13 0.13 90 1018.9
20260905234403 77 60 0.0 0.9 0.00 0.13 0.13 88 1018.7
20260905233858 77 60 0.0 0.9 0.00 0.13 0.13 87 1018.5
20260905233353 76 64 0.0 0.0 0.00 0.13 0.13 88 1018.5
20260905232852 76 64 0.0 0.0 0.00 0.13 0.13 88 1018.5
20260905232349 77 62 0.0 0.9 0.00 0.13 0.13 88 1018.8
20260905231844 76 63 0.0 0.9 0.00 0.13 0.13 86 1018.4
20260905231339 78 67 0.0 0.9 0.00 0.13 0.13 86 1018.4
20260905230836 77 78 0.0 0.9 0.00 0.13 0.13 83 1018.4
20260905230333 77 88 0.9 0.9 0.00 0.13 0.13 82 1018.5
20260905225832 77 82 0.0 0.0 0.00 0.13 0.13 84 1018.5
20260905225327 76 95 0.9 2.6 0.00 0.13 0.13 82 1018.5
20260905224822 77 83 0.0 0.9 0.00 0.13 0.13 84 1018.3
20260905224318 77 95 1.7 3.5 0.00 0.13 0.13 81 1018.5
20260905223812 77 84 0.0 0.9 0.00 0.13 0.13 82 1018.7
20260905223310 77 82 0.0 0.9 0.00 0.13 0.13 81 1018.4
20260905222805 77 79 0.0 0.0 0.00 0.13 0.13 84 1018.4
20260905222306 76 87 0.0 0.9 0.00 0.13 0.13 84 1018.5
20260905221800 76 82 0.0 2.6 0.00 0.13 0.13 84 1018.3
20260905221256 76 87 1.7 4.3 0.00 0.13 0.13 82 1018.5
20260905220752 77 76 0.0 2.6 0.00 0.13 0.13 84 1018.3
20260905220248 77 90 2.6 3.5 0.00 0.13 0.13 82 1018.3
20260905215747 77 78 0.0 3.5 0.00 0.13 0.13 84 1018.1
20260905215243 76 96 2.6 5.2 0.00 0.13 0.13 85 1018.0
20260905214739 76 69 1.7 3.5 0.00 0.13 0.13 84 1017.8
20260905214235 77 89 0.0 0.9 0.00 0.13 0.13 87 1018.0
20260905213730 76 99 4.3 4.3 0.00 0.13 0.13 85 1018.1
20260905213226 76 93 1.7 2.6 0.00 0.13 0.13 85 1018.0
20260905212721 76 66 0.0 2.6 0.00 0.13 0.13 87 1018.1
20260905212220 76 78 0.0 0.9 0.00 0.13 0.13 86 1018.0
20260905211719 75 71 0.0 2.6 0.00 0.13 0.13 87 1018.0
20260905211215 76 81 0.9 7.0 0.00 0.13 0.13 86 1017.9
20260905210711 75 92 2.6 3.5 0.00 0.13 0.13 87 1018.0
20260905210206 75 67 0.9 2.6 0.00 0.13 0.13 86 1018.1
20260905205705 75 136 3.5 5.2 0.00 0.13 0.13 87 1018.0
20260905205205 76 93 0.9 0.9 0.00 0.13 0.13 89 1017.8
20260905204705 77 98 2.6 2.6 0.00 0.13 0.13 89 1018.1
20260905204200 75 118 0.9 3.5 0.00 0.13 0.13 89 1017.8
20260905203654 76 89 2.6 2.6 0.00 0.13 0.13 89 1018.2
20260905203150 75 80 0.0 2.6 0.00 0.13 0.13 91 1017.9
20260905202645 74 60 0.9 0.9 0.00 0.13 0.13 92 1018.2
20260905202140 73 77 0.9 4.3 0.00 0.13 0.13 93 1018.3
20260905201636 73 92 0.9 2.6 0.00 0.13 0.13 94 1018.3
20260905201130 72 74 0.0 0.9 0.00 0.13 0.13 96 1018.3
20260905200626 72 98 0.0 2.6 0.00 0.13 0.13 97 1018.3
20260905200121 71 85 0.0 3.5 0.00 0.13 0.13 97 1018.4
20260905195619 72 76 4.3 5.2 0.00 0.13 0.13 98 1018.3
20260905195114 71 88 0.9 0.9 0.00 0.13 0.13 98 1018.4
20260905194609 71 106 1.7 2.6 0.00 0.13 0.13 99 1018.4
20260905194108 71 88 0.9 0.9 0.00 0.13 0.13 99 1018.4
20260905193603 70 75 2.6 3.5 0.00 0.13 0.13 99 1018.3
20260905193058 70 69 0.0 0.0 0.00 0.13 0.13 99 1018.4
20260905192554 70 86 0.9 0.9 0.00 0.13 0.13 99 1018.5
20260905192050 69 106 0.9 0.9 0.00 0.13 0.13 99 1018.7
20260905191548 69 72 0.0 0.9 0.00 0.13 0.13 99 1018.9
20260905191047 69 92 2.6 3.5 0.00 0.13 0.13 99 1018.9
20260905190545 69 55 1.7 2.6 0.00 0.13 0.13 99 1018.7
20260905190039 69 75 0.9 3.5 0.00 0.13 0.13 99 1018.8
20260905185539 69 75 0.0 4.3 0.00 0.13 0.13 99 1018.7
20260905185038 69 69 0.9 2.6 0.07 0.13 0.13 99 1018.7
20260905184533 69 83 0.0 4.3 0.07 0.13 0.13 99 1018.8
20260905184031 69 81 0.0 0.9 0.00 0.12 0.12 99 1018.9
20260905183526 69 74 0.0 0.9 0.00 0.12 0.12 99 1019.1
20260905183021 69 75 0.0 0.9 0.05 0.12 0.12 99 1019.1
20260905182521 69 61 0.9 2.6 0.17 0.12 0.12 99 1019.1
20260905182015 69 100 0.9 2.6 0.38 0.11 0.11 99 1019.1
20260905181510 69 72 0.0 0.9 0.38 0.09 0.09 99 1019.1
20260905181009 69 95 0.9 2.6 0.17 0.05 0.05 99 1019.0
20260905180504 69 78 0.0 0.9 0.12 0.03 0.03 98 1019.1
20260905175959 70 74 0.0 0.9 0.12 0.02 0.02 98 1019.1
20260905175458 70 76 0.0 0.0 0.05 0.01 0.01 97 1019.0
20260905174954 70 76 0.0 0.0 0.00 0.00 0.00 97 1019.1
20260905174449 70 77 0.0 2.6 0.00 0.00 0.00 96 1018.8
20260905173945 69 78 0.0 3.5 0.00 0.00 0.00 96 1018.9
20260905173441 69 80 0.0 2.6 0.00 0.00 0.00 96 1018.9
20260905172936 69 89 0.9 2.6 0.00 0.00 0.00 96 1018.8
20260905172434 69 60 0.9 2.6 0.00 0.00 0.00 96 1018.9
20260905171930 70 71 0.0 0.9 0.00 0.00 0.00 96 1018.8
20260905171427 69 103 0.9 2.6 0.00 0.00 0.00 96 1018.9
20260905170923 69 62 0.0 0.9 0.00 0.00 0.00 96 1018.8
20260905170419 69 101 2.6 3.5 0.00 0.00 0.00 96 1019.0
20260905165918 69 86 2.6 3.5 0.00 0.00 0.00 96 1019.1
20260905165413 69 68 0.0 0.9 0.00 0.00 0.00 96 1018.7
20260905164909 69 97 2.6 4.3 0.00 0.00 0.00 96 1019.0
20260905164403 69 102 2.6 3.5 0.00 0.00 0.00 96 1018.8
20260905163858 69 63 0.9 5.2 0.00 0.00 0.00 95 1018.9
20260905163355 69 51 0.9 5.2 0.00 0.00 0.00 96 1018.5
20260905162850 70 84 1.7 2.6 0.00 0.00 0.00 95 1018.7
20260905162350 70 103 0.9 3.5 0.00 0.00 0.00 94 1018.5
20260905161845 70 60 0.9 4.3 0.00 0.00 0.00 94 1018.8
20260905161344 70 66 0.0 2.6 0.00 0.00 0.00 94 1018.5
20260905160843 70 94 5.2 7.0 0.00 0.00 0.00 94 1018.7
20260905160337 70 85 1.7 8.7 0.00 0.00 0.00 93 1018.7
20260905155831 70 79 2.6 4.3 0.00 0.00 0.00 93 1018.4
20260905155325 70 107 4.3 7.8 0.00 0.00 0.00 93 1018.5
20260905154825 70 87 0.9 2.6 0.00 0.00 0.00 92 1018.4
20260905154320 70 93 0.9 7.0 0.00 0.00 0.00 92 1018.2
20260905153816 69 127 3.5 7.8 0.00 0.00 0.00 92 1018.1
20260905153312 70 92 4.3 5.2 0.00 0.00 0.00 92 1018.2
20260905152806 70 146 4.3 4.3 0.00 0.00 0.00 92 1018.3
20260905152306 70 71 0.0 0.9 0.00 0.00 0.00 93 1018.4
20260905151800 70 81 0.0 0.9 0.00 0.00 0.00 93 1018.3
20260905151255 70 70 0.0 3.5 0.00 0.00 0.00 93 1018.4
20260905150750 70 65 0.0 0.9 0.00 0.00 0.00 93 1018.3
20260905150250 70 77 0.0 0.9 0.00 0.00 0.00 93 1018.2
20260905145747 70 104 2.6 2.6 0.00 0.00 0.00 92 1018.2
20260905145242 70 89 1.7 3.5 0.00 0.00 0.00 92 1018.3
20260905144741 70 100 2.6 3.5 0.00 0.00 0.00 92 1018.2
20260905144237 70 99 5.2 7.0 0.00 0.00 0.00 92 1018.2
20260905143735 70 83 0.9 2.6 0.00 0.00 0.00 93 1018.2
20260905143235 70 84 0.9 0.9 0.00 0.00 0.00 93 1018.1
20260905142734 70 106 3.5 4.3 0.00 0.00 0.00 93 1018.2
20260905142228 70 69 1.7 3.5 0.00 0.00 0.00 93 1018.2
20260905141724 70 73 0.0 2.6 0.00 0.00 0.00 93 1018.3
20260905141220 70 59 0.9 4.3 0.00 0.00 0.00 93 1018.1
20260905140715 70 61 0.9 3.5 0.00 0.00 0.00 93 1018.0
20260905140209 70 70 0.0 3.5 0.00 0.00 0.00 93 1018.0
20260905135703 70 60 0.9 4.3 0.00 0.00 0.00 94 1017.8
20260905135200 70 70 0.9 3.5 0.00 0.00 0.00 94 1017.8
20260905134659 70 93 2.6 3.5 0.00 0.00 0.00 94 1017.8
20260905134158 70 80 0.9 3.5 0.00 0.00 0.00 94 1017.6
20260905133653 70 80 3.5 7.0 0.00 0.00 0.00 94 1017.7
20260905133148 70 93 0.9 4.3 0.00 0.00 0.00 95 1017.6
20260905132647 70 86 0.9 4.3 0.00 0.00 0.00 95 1017.8
20260905132142 70 73 5.2 7.0 0.00 0.00 0.00 96 1017.9
20260905131637 70 74 0.0 3.5 0.00 0.00 0.00 96 1017.7
20260905131132 69 91 0.9 4.3 0.00 0.00 0.00 97 1017.5
20260905130627 69 81 0.9 3.5 0.00 0.00 0.00 98 1017.4
20260905130126 69 102 3.5 5.2 0.00 0.00 0.00 99 1017.5
20260905125621 69 68 0.0 3.5 0.00 0.00 0.00 99 1017.5
20260905125117 69 72 0.9 3.5 0.00 0.00 0.00 99 1017.6
20260905124613 69 91 3.5 5.2 0.00 0.00 0.00 99 1017.4